Overview Statistics Trail Chart Weather Telemetry Raw packets
 

This is the latest recevied weather packets stored in our database for station/object KI5NXU. If no packets are shown the sender has not sent any weather packets the latest 10 day(s).

<< 103 104 105 106 107 108 109 >>
Time Temp. Humidity Pressure Rain* Wind** Luminosity Snow
1787616572 41.67° C 23% 1011 hPa 0 mm - 75 W/m² -
1787616270 41.67° C 23% 1011 hPa 0 mm - 84 W/m² -
1787615969 41.67° C 23% 1011.1 hPa 0 mm - 91 W/m² -
1787615664 42.22° C 23% 1011.2 hPa 0 mm - 101 W/m² -
1787615360 42.22° C 23% 1011.2 hPa 0 mm - 115 W/m² -
1787615056 42.22° C 23% 1011.1 hPa 0 mm - 128 W/m² -
1787614752 41.67° C 23% 1010.8 hPa 0 mm - 142 W/m² -
1787614449 42.22° C 23% 1011.1 hPa 0 mm - 152 W/m² -
1787614145 42.22° C 23% 1011.1 hPa 0 mm - 170 W/m² -
1787613841 42.22° C 23% 1011 hPa 0 mm - 191 W/m² -
1787613536 42.78° C 21% 1011.1 hPa 0 mm - 213 W/m² -
1787613232 42.78° C 22% 1011.1 hPa 0 mm - 232 W/m² -
1787612928 42.22° C 22% 1011.2 hPa 0 mm - 247 W/m² -
1787612624 42.22° C 21% 1011 hPa 0 mm - 251 W/m² -
1787612320 42.78° C 20% 1011.1 hPa 0 mm - 270 W/m² -
1787612016 43.33° C 21% 1011.2 hPa 0 mm - 280 W/m² -
1787611712 42.78° C 21% 1011.1 hPa 0 mm - 298 W/m² -
1787611408 43.89° C 21% 1011.1 hPa 0 mm - 318 W/m² -
1787611108 43.89° C 21% 1011 hPa 0 mm - 343 W/m² -
1787610804 43.89° C 22% 1011.2 hPa 0 mm - 371 W/m² -
1787610499 43.33° C 21% 1011.4 hPa 0 mm - 391 W/m² -
1787610198 43.33° C 21% 1011.2 hPa 0 mm - 414 W/m² -
1787609898 43.89° C 21% 1011 hPa 0 mm - 433 W/m² -
1787609598 43.33° C 21% 1011.2 hPa 0 mm - 444 W/m² -
1787609293 43.33° C 22% 1011.3 hPa 0 mm - 448 W/m² -

* Rain latest hour (hover to see other rain measurements)
** Current wind speed in m/s (hover to see current wind gust speed)